Flag for Micronesia Weather past 2 weeks in Tofol, Kosrae, Micronesia

Now
82 °F

Mostly cloudy.


Feels Like: 88 °F
Forecast: 82 / 86 °F
Wind: 12 mph from Northeast

Location: Pohnpei

Current Time: Mar 5, 2015 at 2:21:29 AM

Latest Report: Mar 5, 2015 at 1:52 AM


Visibility: 15 mi

Pressure: 29.77 "Hg

Humidity: 76%

Dew point: 74 °F

Location of TofolLocation

Historic Weather in Tofol — Graph

°F

Tofol temperature yesterday

Maximum temperature yesterday: 87 °F (at 1:52 PM)
Minimum temperature yesterday: 76 °F (at 10:55 PM)
Average temperature yesterday: 83 °F

Past Weeks' High & Low Weather Summary

 TemperatureHumidityPressure
High89 °F (Feb 20, 1:55 PM)99% (Mar 1, 8:51 PM)29.90 "Hg (Mar 1, 8:51 PM)
Low74 °F (Feb 21, 3:52 AM)67% (Feb 20, 1:55 PM)29.70 "Hg (Mar 2, 3:50 PM)
Average81 °F83%29.81 "Hg
* Reported Feb 18 12:53 AM — Mar 5 12:51 AM, Tofol, Weather by CustomWeather, © 2015

Note: Actual official high and low records may vary slightly from our data, if they occured in-between our weather recording intervals... More about our weather records

Advertising

Tofol weather history for previous 24 hours

 ConditionsComfort  
Time TempWeatherWind HumidityBarometerVisibility
12:51 AM
Thu, Mar 5
82 °FOvercast.10 mph78%29.80 "Hg15 mi
11:55 PM
Wed, Mar 4
82 °FMostly cloudy.7 mph78%29.83 "Hg15 mi
10:55 PM76 °FSprinkles. Overcast.6 mph99%29.84 "Hg13 mi
9:54 PM80 °FOvercast.3 mph79%29.83 "Hg15 mi
8:50 PM81 °FPassing clouds.10 mph78%29.82 "Hg15 mi
7:52 PM83 °FPartly cloudy.8 mph77%29.80 "Hg15 mi
6:50 PM82 °FMostly cloudy.6 mph72%29.78 "Hg15 mi
5:50 PM83 °FMore clouds than sun.8 mph79%29.76 "Hg15 mi
4:53 PM84 °FBroken clouds.8 mph80%29.75 "Hg15 mi
3:56 PM85 °FOvercast.8 mph76%29.74 "Hg15 mi
2:58 PM86 °FMore clouds than sun.10 mph75%29.75 "Hg15 mi
1:52 PM87 °FMore clouds than sun.8 mph70%29.77 "Hg15 mi
12:50 PM86 °FMore clouds than sun.7 mph72%29.78 "Hg15 mi
11:54 AM86 °FMore clouds than sun.8 mph71%29.80 "Hg15 mi
10:55 AM87 °FMore clouds than sun.8 mph72%29.82 "Hg15 mi
9:53 AM85 °FMore clouds than sun.9 mph71%29.83 "Hg15 mi
8:53 AM84 °FMore clouds than sun.8 mph75%29.81 "Hg15 mi
7:51 AM82 °FMore clouds than sun.8 mph78%29.80 "Hg15 mi
6:50 AM81 °FMore clouds than sun.7 mph79%29.78 "Hg15 mi
5:53 AM81 °FPassing clouds.6 mph79%29.76 "Hg15 mi
4:52 AM82 °FOvercast.7 mph79%29.75 "Hg15 mi
3:52 AM81 °FPartly cloudy.6 mph79%29.75 "Hg15 mi
2:51 AM81 °FPartly cloudy.5 mph80%29.75 "Hg15 mi
Weather by CustomWeather, © 2015

See weather overviewHow to use our weather pages